{"data":{"norad_id":65932,"intl_designator":"2025-225Y","name":"STARLINK-35436","alt_names":[],"object_type":"PAYLOAD","status":"ACTIVE","operator":null,"country":"US","launch_date":"2025-10-08","launch_site_code":"AFWTR","launch_vehicle":null,"mission":null,"orbit_class":"UNKNOWN","rcs_meters":null,"size_class":null,"mass_kg":null,"dimensions":null,"purposes":["comms"],"wikipedia_slug":null,"has_3d_model":false,"image_url":null,"decayed_at":null,"tle_current":{"epoch":"2026-09-20T20:27:52.760736Z","epoch_age_seconds":72613,"freshness":"FRESH","line1":"1 65932U 25225Y   26263.85269399  .00011582  00000+0  35379-3 0  9997","line2":"2 65932  53.1599 338.0889 0001215  52.6814 307.4299 15.34363714 54306","mean_motion":15.34363714,"eccentricity":0.0001215,"inclination_deg":53.1599,"raan_deg":338.0889,"arg_perigee_deg":52.6814,"mean_anomaly_deg":307.4299,"bstar":0.00035379,"rev_number":5430,"period_min":93.849977476722,"perigee_km":461.97991677829,"apogee_km":463.64226716464,"semimajor_km":6840.9480919715,"source":"CELESTRAK","updated_at":"2026-09-21T09:00:35.766766Z"}}}